[[{"header":{"parameterUnit":"m.s-1","parameterCategory":1,"la1":30.2991,"la2":30.254,"lo1":-89.0895,"lo2":-89.0444,"dy":0.0017,"dx":0.0017,"nx":28,"ny":28,"refTime":"2025-06-11T21:00:00:Z","depth":0,"parameterNumber":2,"parameterNumberName":"U-component_of_WINDS"},"data":[0,0,0,0,0,0,0,0,0,0,0,0,0,0,0,0,0,0,0,0,0,0,0,0,0,0,0,0,0,0,0,0,0,0,0,0,0,0,0,0,0,0,0,0,0,0,0,0,0,0,0,0,0,0,0,0,0,0,-2.5555,-2.5554,0,-2.5468,-2.5467,-2.5466,-2.5388,-2.5387,-2.5386,-2.5385,-2.5295,-2.5293,-2.5292,0,0,0,0,0,0,0,0,0,0,0,0,0,-2.5653,-2.5651,-2.5555,-2.5554,-2.5553,-2.5468,-2.5467,-2.5465,-2.5388,-2.5387,-2.5386,-2.5385,-2.5295,-2.5293,-2.5292,0,0,0,0,0,0,0,0,0,0,0,0,0,-2.5592,-2.5651,-2.5556,-2.5504,-2.5499,-2.5468,-2.5467,-2.5465,-2.5388,-2.5387,-2.5386,-2.5385,-2.5296,-2.5294,-2.5291,-2.5304,0,0,-2.5284,-2.5283,0,0,0,0,0,0,0,0,-2.5596,-2.5589,-2.5513,-2.5508,-2.5502,-2.5437,-2.5468,-2.5411,-2.5389,-2.543,-2.5385,-2.5384,-2.5343,-2.5337,-2.5323,-2.5299,-2.5296,-2.5284,-2.5282,-2.5281,-2.5281,0,0,0,0,0,0,0,-2.56,-2.5592,-2.5521,-2.5512,-2.5505,-2.5485,-2.5475,-2.5456,-2.5395,-2.5427,-2.5421,-2.5412,-2.534,-2.5326,-2.5321,-2.5294,-2.5284,-2.5282,-2.528,-2.5279,-2.5271,-2.5272,0,0,0,0,0,0,-2.5612,-2.5596,-2.5523,-2.5518,-2.5546,-2.5484,-2.5473,-2.5459,-2.5395,-2.5384,-2.5413,-2.5408,-2.5331,-2.5324,-2.5317,-2.5324,-2.5281,-2.5279,-2.5278,-2.527,-2.5272,-2.5273,0,0,0,0,0,0,-2.5615,-2.5607,-2.5527,-2.5555,-2.5544,-2.5484,-2.5469,-2.5458,-2.5444,-2.5385,-2.5373,-2.541,-2.5329,-2.5321,-2.5307,-2.532,-2.5278,-2.5276,-2.5269,-2.5271,-2.5272,-2.5341,0,0,0,0,0,0,-2.5618,-2.5608,-2.5613,-2.5556,-2.5543,-2.5519,-2.547,-2.5458,-2.5441,-2.5434,-2.5379,-2.5369,-2.5327,-2.5311,-2.5304,-2.5316,-2.5274,-2.5267,-2.527,-2.5272,-2.5337,-2.5345,-2.5351,0,0,0,0,0,-2.5622,-2.5637,-2.5614,-2.5605,-2.5548,-2.552,-2.5512,-2.5465,-2.5442,-2.5446,-2.5407,-2.5371,-2.532,-2.531,-2.5302,-2.5313,-2.5266,-2.5269,-2.5272,-2.5334,-2.5343,-2.5351,0,0,0,0,0,0,-2.5697,-2.5628,-2.5602,-2.5599,-2.5566,-2.5507,-2.551,-2.5477,-2.5449,-2.5444,-2.5386,-2.5374,-2.5366,-2.5338,-2.5328,-2.532,-2.5288,-2.5289,-2.5338,-2.5346,-2.5353,-2.5359,-2.5272,0,0,0,0,0,-2.5713,-2.5698,-2.5638,-2.5641,-2.5626,-2.5571,-2.5557,-2.5523,-2.5487,-2.5472,-2.5432,-2.5398,-2.5373,-2.5359,-2.5333,-2.5333,-2.5318,-2.5337,-2.5344,-2.535,-2.5351,-2.5345,-2.5352,-2.5282,-2.5282,-2.5282,0,0,-2.5747,-2.5707,-2.5701,-2.5655,-2.5625,-2.5608,-2.556,-2.5545,-2.5531,-2.547,-2.5453,-2.5423,-2.538,-2.5372,-2.5366,-2.5349,-2.5367,-2.5354,-2.5359,-2.5357,-2.5349,-2.5355,-2.5361,-2.5284,-2.5283,-2.5283,0,0,-2.5798,-2.5768,-2.5766,-2.5736,-2.5692,-2.5655,-2.5655,-2.56,-2.5577,-2.556,-2.5512,-2.5495,-2.5456,-2.5425,-2.5405,-2.5443,-2.5407,-2.5436,-2.5473,-2.5468,-2.5473,-2.5478,-2.5488,-2.5493,-2.5438,-2.5438,-2.5438,0,-2.5845,-2.5819,-2.5769,-2.5756,-2.5736,-2.5679,-2.5674,-2.5648,-2.5598,-2.5584,-2.5566,-2.5512,-2.548,-2.5462,-2.5471,-2.5458,-2.5453,-2.5441,-2.5477,-2.5481,-2.5484,-2.5493,-2.5497,-2.5442,-2.5441,-2.5441,-2.5441,0,-2.5877,-2.586,-2.5863,-2.5814,-2.5795,-2.5787,-2.5733,-2.5719,-2.5687,-2.5652,-2.5633,-2.5591,-2.5555,-2.5548,-2.5517,-2.5525,-2.5515,-2.5488,-2.5454,-2.5495,-2.5502,-2.5506,-2.5447,-2.5446,-2.5445,-2.5444,0,0,-2.5974,-2.5897,-2.5898,-2.5874,-2.582,-2.5804,-2.5792,-2.5757,-2.5744,-2.5711,-2.5697,-2.5664,-2.5637,-2.5614,-2.5578,-2.5574,-2.5602,-2.5546,-2.5544,-2.5555,-2.5605,-2.5624,-2.5629,-2.5579,-2.5579,-2.558,-2.5607,0,-2.6015,-2.599,-2.5943,-2.5933,-2.5914,-2.5859,-2.5847,-2.5812,-2.5778,-2.5756,-2.5719,-2.5694,-2.5662,-2.5647,-2.5641,-2.56,-2.5611,-2.5598,-2.5563,-2.5563,-2.5574,-2.5634,-2.5655,-2.5683,-2.561,-2.5611,-2.5611,0,-2.6059,-2.6028,-2.6016,-2.5959,-2.595,-2.5941,-2.5902,-2.5883,-2.584,-2.5816,-2.5789,-2.5749,-2.5731,-2.5702,-2.5674,-2.5666,-2.5649,-2.5627,-2.5627,-2.562,-2.5588,-2.5626,-2.5692,-2.5695,-2.5616,-2.5615,-2.5615,0,-2.6127,-2.6082,-2.6068,-2.605,-2.5985,-2.5979,-2.5952,-2.5908,-2.5888,-2.5855,-2.5841,-2.5806,-2.5786,-2.5759,-2.571,-2.5693,-2.5686,-2.5654,-2.5663,-2.5664,-2.5663,-2.5663,-2.5724,-2.5657,-2.5656,-2.5656,-2.5656,0,-2.6176,-2.617,-2.6097,-2.6089,-2.6079,-2.6025,-2.6016,-2.5984,-2.5945,-2.5927,-2.5877,-2.5861,-2.5799,-2.5775,-2.5737,-2.5718,-2.571,-2.5688,-2.5677,-2.5691,-2.5693,-2.5677,-2.5673,-2.5657,-2.5657,-2.5657,-2.5657,0,-2.625,-2.6202,-2.6182,-2.6122,-2.6106,-2.6101,-2.6049,-2.6037,-2.6,-2.5978,-2.5969,-2.591,-2.5879,-2.5828,-2.5783,-2.5757,-2.5744,-2.5728,-2.5758,-2.5751,-2.5763,-2.5761,-2.5814,-2.5816,-2.575,-2.5751,-2.5751,0,-2.6283,-2.6277,-2.6215,-2.62,-2.6174,-2.615,-2.613,-2.6075,-2.6055,-2.6005,-2.5998,-2.5964,-2.5933,-2.5885,-2.5838,-2.5802,-2.5782,-2.5803,-2.5777,-2.5789,-2.5779,-2.5779,-2.5777,-2.5809,-2.581,-2.5811,-2.5811,0,-2.6346,-2.6322,-2.6295,-2.6258,-2.6235,-2.6203,-2.6169,-2.6159,-2.6097,-2.6077,-2.6044,-2.602,-2.5973,-2.5937,-2.5894,-2.5864,-2.5826,-2.582,-2.582,-2.5833,-2.5849,-2.5837,-2.5772,-2.5819,-2.5818,-2.5818,-2.5817,-2.5817,-2.6399,-2.6389,-2.6344,-2.6314,-2.6282,-2.6251,-2.6236,-2.6196,-2.6169,-2.6126,-2.6095,-2.6064,-2.6018,-2.5956,-2.5928,-2.5901,-2.5885,-2.5885,-2.5885,-2.5885,-2.5889,-2.5856,-2.5894,-2.5893,-2.5893,-2.5893,-2.5892,0,-2.6457,-2.6424,-2.6398,-2.6351,-2.6327,-2.6294,-2.6254,-2.6235,-2.6209,-2.617,-2.614,-2.6101,-2.6066,-2.6015,-2.5975,-2.5964,-2.5945,-2.5955,-2.5954,-2.5947,-2.5908,-2.591,-2.597,-2.597,-2.597,-2.597,-2.597,-2.597,-2.6484,-2.6465,-2.6436,-2.64,-2.6367,-2.6336,-2.6315,-2.6285,-2.6253,-2.6212,-2.6183,-2.615,-2.6105,-2.6061,-2.6027,-2.6012,-2.5999,-2.6014,-2.5994,-2.5957,-2.595,-2.5943,-2.5945,-2.6012,-2.6012,-2.6035,-2.6035,-2.6035]},{"header":{"parameterUnit":"m.s-1","parameterCategory":1,"la1":30.2991,"la2":30.254,"lo1":-89.0895,"lo2":-89.0444,"dy":0.0017,"dx":0.0017,"nx":28,"ny":28,"refTime":"2025-06-11T21:00:00:Z","depth":0,"parameterNumber":3,"parameterNumberName":"V-component_of_WINDS"},"data":[0,0,0,0,0,0,0,0,0,0,0,0,0,0,0,0,0,0,0,0,0,0,0,0,0,0,0,0,0,0,0,0,0,0,0,0,0,0,0,0,0,0,0,0,0,0,0,0,0,0,0,0,0,0,0,0,0,0,0.7576,0.7577,0,0.7638,0.7639,0.7639,0.7666,0.7666,0.7666,0.7666,0.7729,0.7731,0.7733,0,0,0,0,0,0,0,0,0,0,0,0,0,0.7484,0.7485,0.7576,0.7577,0.7578,0.7638,0.7639,0.764,0.7666,0.7666,0.7666,0.7666,0.7729,0.7731,0.7733,0,0,0,0,0,0,0,0,0,0,0,0,0,0.7532,0.7486,0.7576,0.7598,0.7601,0.7638,0.7639,0.764,0.7666,0.7666,0.7666,0.7666,0.7728,0.7731,0.7733,0.7752,0,0,0.7741,0.7742,0,0,0,0,0,0,0,0,0.753,0.7536,0.7594,0.7597,0.76,0.7644,0.7629,0.7677,0.7666,0.7642,0.7666,0.7666,0.7701,0.7706,0.7718,0.7755,0.7758,0.7741,0.7743,0.7744,0.7745,0,0,0,0,0,0,0,0.7526,0.7533,0.7601,0.7595,0.7598,0.7606,0.7613,0.7638,0.7671,0.7644,0.7646,0.7653,0.7703,0.7715,0.7719,0.7759,0.7741,0.7744,0.7745,0.7746,0.7819,0.7819,0,0,0,0,0,0,0.7519,0.753,0.7599,0.7602,0.7564,0.7608,0.7615,0.763,0.7671,0.7677,0.7653,0.7654,0.7711,0.7716,0.7722,0.775,0.7744,0.7747,0.7748,0.7819,0.7819,0.7819,0,0,0,0,0,0,0.7517,0.7525,0.7596,0.7567,0.7577,0.7609,0.7626,0.7631,0.7644,0.7678,0.7684,0.766,0.7711,0.7718,0.7745,0.7752,0.7748,0.775,0.7818,0.7819,0.7819,0.7803,0,0,0,0,0,0,0.7514,0.7524,0.7531,0.7567,0.7578,0.7618,0.7626,0.7633,0.7649,0.765,0.7686,0.7692,0.7711,0.7741,0.7748,0.7756,0.7752,0.7818,0.7818,0.7819,0.7803,0.7803,0.7803,0,0,0,0,0,0.7511,0.7523,0.7531,0.7539,0.7587,0.7618,0.7625,0.7647,0.7649,0.7657,0.7679,0.7691,0.775,0.7744,0.7752,0.776,0.7817,0.7818,0.7819,0.7803,0.7803,0.7803,0,0,0,0,0,0,0.7485,0.7528,0.7537,0.7561,0.7586,0.7623,0.7633,0.7645,0.767,0.767,0.7697,0.7705,0.7731,0.7748,0.774,0.7783,0.7785,0.7787,0.777,0.777,0.777,0.7766,0.7755,0,0,0,0,0,0.7483,0.7504,0.754,0.7558,0.757,0.7599,0.7613,0.7629,0.7656,0.7666,0.769,0.7716,0.7741,0.7756,0.7781,0.7806,0.7816,0.7816,0.7816,0.7815,0.7817,0.7835,0.7837,0.7822,0.7822,0.7822,0,0,0.7477,0.7503,0.7515,0.7554,0.7575,0.7597,0.7608,0.763,0.7648,0.7669,0.7697,0.7716,0.7747,0.7774,0.7787,0.7789,0.7824,0.7816,0.7816,0.7818,0.7836,0.7838,0.7839,0.7822,0.7822,0.7822,0,0,0.748,0.75,0.7519,0.754,0.7573,0.7593,0.7597,0.7633,0.7646,0.7675,0.7693,0.7714,0.7755,0.7777,0.7794,0.7808,0.7821,0.7815,0.7815,0.7832,0.7833,0.7834,0.7842,0.7844,0.7817,0.7817,0.7817,0,0.7469,0.7503,0.7527,0.755,0.7567,0.7589,0.761,0.7629,0.7667,0.768,0.7681,0.7736,0.7758,0.7792,0.7796,0.7808,0.7816,0.7811,0.7831,0.7832,0.7834,0.7841,0.7844,0.7816,0.7816,0.7816,0.7816,0,0.7489,0.7513,0.7525,0.7563,0.7581,0.7602,0.7631,0.7648,0.7662,0.7682,0.7713,0.774,0.7772,0.7781,0.7795,0.7819,0.7819,0.7825,0.7829,0.7834,0.7842,0.7845,0.7815,0.7815,0.7816,0.7816,0,0,0.7476,0.7529,0.7533,0.7552,0.7591,0.761,0.7633,0.7665,0.768,0.7706,0.7728,0.7764,0.7771,0.779,0.7807,0.7821,0.7835,0.7826,0.7828,0.7829,0.7866,0.7862,0.7865,0.7843,0.7843,0.7844,0.7864,0,0.7485,0.7528,0.7551,0.7585,0.7609,0.7631,0.7652,0.7679,0.7699,0.7723,0.7745,0.7771,0.7777,0.779,0.7805,0.7829,0.7843,0.7828,0.7865,0.7866,0.7858,0.7868,0.7864,0.7882,0.7867,0.7867,0.7868,0,0.75,0.7528,0.7564,0.7603,0.7614,0.7632,0.7665,0.7687,0.7719,0.7733,0.7756,0.7773,0.78,0.7801,0.784,0.783,0.7847,0.7861,0.7863,0.7868,0.7868,0.7876,0.7887,0.7891,0.7872,0.7872,0.7872,0,0.749,0.7536,0.7564,0.758,0.7625,0.7638,0.7658,0.7689,0.7708,0.7737,0.775,0.7781,0.7799,0.7824,0.785,0.7847,0.7888,0.789,0.7902,0.7901,0.791,0.7909,0.7926,0.7917,0.7917,0.7917,0.7917,0,0.7498,0.752,0.7561,0.7578,0.7605,0.7632,0.7658,0.7679,0.7708,0.7731,0.7752,0.7774,0.7806,0.7832,0.7852,0.7884,0.7891,0.7904,0.791,0.7903,0.7902,0.7915,0.7916,0.7918,0.7918,0.7918,0.7918,0,0.749,0.7519,0.7552,0.7593,0.7604,0.7622,0.7658,0.7677,0.7699,0.7728,0.7737,0.7772,0.7804,0.7833,0.7875,0.7889,0.7922,0.7927,0.7911,0.7914,0.7926,0.7925,0.7953,0.7959,0.7945,0.7945,0.7945,0,0.7494,0.7512,0.7556,0.7574,0.7593,0.7621,0.7641,0.767,0.769,0.773,0.7745,0.7779,0.7807,0.7858,0.7888,0.7921,0.7929,0.7937,0.7934,0.7928,0.7932,0.7931,0.7935,0.7937,0.7937,0.7937,0.7937,0,0.7499,0.7513,0.7541,0.7575,0.7599,0.7627,0.7656,0.7669,0.7704,0.7726,0.776,0.7782,0.7827,0.7861,0.7899,0.792,0.7935,0.7937,0.7943,0.7937,0.7928,0.7936,0.7913,0.7937,0.7937,0.7937,0.7937,0.7937,0.7499,0.7517,0.7552,0.7584,0.7609,0.7636,0.7657,0.7683,0.7712,0.7751,0.7766,0.7802,0.7836,0.7888,0.7909,0.7938,0.7941,0.7947,0.7949,0.7951,0.7951,0.7922,0.7945,0.7945,0.7945,0.7945,0.7945,0,0.7507,0.7531,0.756,0.7601,0.7627,0.7639,0.7673,0.7693,0.7724,0.7755,0.7784,0.7825,0.7859,0.7893,0.7929,0.7946,0.7954,0.7955,0.7955,0.796,0.7945,0.7939,0.7948,0.7948,0.7948,0.7948,0.7948,0.7948,0.7514,0.7547,0.7565,0.7611,0.7636,0.7671,0.7689,0.7716,0.7741,0.7786,0.7815,0.7837,0.787,0.7909,0.7942,0.7951,0.7965,0.7964,0.7975,0.7961,0.796,0.796,0.7954,0.7966,0.7966,0.7988,0.7988,0.7988]}]]